Showing default

METEOSAT 12 (MTG I1), 54743

Orbit data source: Space-Track

METEOSAT 12 (MTG I1), 54743 is a payload satellite owned by EUMETSAT (DE) in GEO that was launched on Tue, 13 Dec 2022 UTC via an ARIANE 5ECA+ launch vehicle from the French Guiana (FRGUI). Payload-class satellites include a variety of spacecraft equipped with specific instruments for various scientific and technological missions. These include communications satellites like Starlink; space stations such as the ISS; scientific satellites like the Hubble; Earth observation satellites from companies like Planet Labs, Umbra, and HawkEye 360; GPS; miniature CubeSats for education and research; and military/defense satellites.

Not visible in the next 10 days
Identifier
54743, 2022-170C
Orbit
GEO
Country
Flag of DEDE / EUME
Related business
Manufacturer
Thales Alenia
Mission
Operational Civil Weather
Bus & Motor
MTG, S400 X2
Mass
3,760 kg wet, ~2,500 kg dry
Launch date (UTC)
2022-12-13 (3 years ago)
Launch vehicle
ARIANE 5ECA+
Launch site
French Guiana (FRGUI)
Object type
Payload
Rocket body
Debris
Shape & HBR
Box + 2 Pan, 5.0 m
Radar Cross Section
19.366 m², Large (>1 m²)

Expand to show TLE details & history
Last TLE update: 8 hours ago

TLE from 8 hours ago
0 METEOSAT 12 (MTG I1)
1 54743U 22170C   26123.55278152  .00000000  00000-0  00000-0 0  9994
2 54743   0.7314  23.4744 0001077 356.6279  39.9899  1.00271369 12534
Epoch: 2026-05-03T13:16Z
TLE epoch observation values (Epoch: 2026-05-03T13:16:00.323Z)
Latitude
0.44868°
Longitude
-0.36339°
Altitude
35,782.642 km
Speed
3.075 km/s
True Right ascension
04h 00m 22s
True Declination
0° 26' 54"
Sunlit
Object was in daylight at epoch
Visualization orbit readout
Latitude
Unknown
Longitude
Unknown
Altitude
Unknown
Speed
Unknown
Apparent Right ascension
Unknown
Apparent Declination
Unknown
Sunlit
N/A
Visualization observer readout
Local Sidereal Time
04:53:20
Azimuth
Unknown
Elevation
Unknown
Doppler factor
Unknown
Orbital elements
Apogee altitude
35,792.323 km
Perigee altitude
35,783.24 km
Semi-major axis
42,165.919 km
Eccentricity
0.00011
Inclination
0.7314°
RAAN
23.4744°
Arg. of periapsis
356.6279°
True anomaly
39.99783°
Mean anomaly
39.9899°
Eccentric anomaly
39.99387°
Mean motion
0.25067 °/min
Orbital period
1,436.16 mins
BSTAR
0
Loading maneuver chart data...
Computing Atmospheric mass density...
Loading historical data...
Loading historical data...
Loading historical data...
Loading historical data...
Loading historical data...
Loading historical data...
Loading historical data...
Other satellites on launch #170 in the year 2022 (2022-12-13 UTC)

Documentation

Showing up to 5 results
|